Time,TemperatureF,DewpointF,PressureIn,WindDirection,WindDirectionDegrees,WindSpeedMPH,WindSpeedGustMPH,Humidity,HourlyPrecipIn,Conditions,Clouds,dailyrainin,SoftwareType,DateUTC
2013-02-02 00:01:00,34.7,33.4,29.95,ENE,68,0.0,0.0,95,0.00,,,0.00,WUHU216HW,2013-02-02 08:01:00,
2013-02-02 00:06:00,34.6,33.2,29.95,ENE,68,0.0,0.0,95,0.00,,,0.00,WUHU216HW,2013-02-02 08:06:00,
2013-02-02 00:11:00,34.4,33.0,29.95,ENE,68,0.0,0.0,95,0.00,,,0.00,WUHU216HW,2013-02-02 08:11:00,
2013-02-02 00:16:00,34.4,33.0,29.95,ENE,68,0.0,0.0,95,0.00,,,0.00,WUHU216HW,2013-02-02 08:16:00,
2013-02-02 00:21:00,34.4,33.0,29.95,ENE,68,0.0,0.0,95,0.00,,,0.00,WUHU216HW,2013-02-02 08:21:00,
2013-02-02 00:26:00,34.2,32.9,29.95,ENE,68,0.0,0.0,95,0.00,,,0.00,WUHU216HW,2013-02-02 08:26:00,
2013-02-02 00:31:00,34.2,32.9,29.95,ENE,68,0.0,0.4,95,0.00,,,0.00,WUHU216HW,2013-02-02 08:31:00,
2013-02-02 00:36:00,34.0,32.7,29.95,ENE,68,0.0,0.4,95,0.00,,,0.00,WUHU216HW,2013-02-02 08:36:00,
2013-02-02 00:41:00,33.8,32.5,29.95,ENE,68,0.0,0.0,95,0.00,,,0.00,WUHU216HW,2013-02-02 08:41:00,
2013-02-02 00:46:00,33.8,32.5,29.96,ENE,68,0.0,0.0,95,0.00,,,0.00,WUHU216HW,2013-02-02 08:46:00,
2013-02-02 00:51:00,33.7,32.3,29.95,ENE,68,0.0,0.9,95,0.00,,,0.00,WUHU216HW,2013-02-02 08:51:00,
2013-02-02 00:56:00,33.5,31.9,29.95,ENE,68,0.4,0.9,94,0.00,,,0.00,WUHU216HW,2013-02-02 08:56:00,
2013-02-02 01:01:00,33.5,31.9,29.95,ENE,68,0.0,0.7,94,0.00,,,0.00,WUHU216HW,2013-02-02 09:01:00,
2013-02-02 01:06:00,33.3,31.7,29.95,ENE,68,0.0,0.4,94,0.00,,,0.00,WUHU216HW,2013-02-02 09:06:00,
2013-02-02 01:11:00,33.1,31.5,29.95,ENE,68,0.0,0.0,94,0.00,,,0.00,WUHU216HW,2013-02-02 09:11:00,
2013-02-02 01:16:00,32.8,31.2,29.94,ENE,68,0.0,0.0,94,0.00,,,0.00,WUHU216HW,2013-02-02 09:16:00,
2013-02-02 01:21:00,32.8,31.2,29.94,ENE,68,0.0,0.0,94,0.00,,,0.00,WUHU216HW,2013-02-02 09:21:00,
2013-02-02 01:26:00,32.6,31.1,29.94,ENE,68,0.0,0.0,94,0.00,,,0.00,WUHU216HW,2013-02-02 09:26:00,
2013-02-02 01:31:00,32.4,30.9,29.95,ENE,68,0.0,0.0,94,0.00,,,0.00,WUHU216HW,2013-02-02 09:31:00,
2013-02-02 01:36:00,32.4,30.9,29.95,ENE,68,0.0,0.0,94,0.00,,,0.00,WUHU216HW,2013-02-02 09:36:00,
2013-02-02 01:41:00,32.4,30.9,29.95,ENE,68,0.0,0.0,94,0.00,,,0.00,WUHU216HW,2013-02-02 09:41:00,
2013-02-02 01:46:00,32.4,30.9,29.95,ENE,68,0.0,0.0,94,0.00,,,0.00,WUHU216HW,2013-02-02 09:46:00,
2013-02-02 01:51:00,32.4,30.9,29.95,ENE,68,0.2,0.2,94,0.00,,,0.00,WUHU216HW,2013-02-02 09:51:00,
2013-02-02 01:56:00,32.4,30.9,29.95,ENE,68,0.0,0.2,94,0.00,,,0.00,WUHU216HW,2013-02-02 09:56:00,
2013-02-02 02:01:00,32.2,30.7,29.94,ENE,68,0.2,0.4,94,0.00,,,0.00,WUHU216HW,2013-02-02 10:01:00,
2013-02-02 02:06:00,32.2,31.0,29.94,ENE,68,0.0,0.4,95,0.00,,,0.00,WUHU216HW,2013-02-02 10:06:00,
2013-02-02 02:11:00,32.0,30.8,29.94,ENE,68,0.0,0.4,95,0.00,,,0.00,WUHU216HW,2013-02-02 10:11:00,
2013-02-02 02:16:00,32.0,30.8,29.95,ENE,68,0.0,0.0,95,0.00,,,0.00,WUHU216HW,2013-02-02 10:16:00,
2013-02-02 02:21:00,31.9,30.6,29.94,ENE,68,0.0,0.0,95,0.00,,,0.00,WUHU216HW,2013-02-02 10:21:00,
2013-02-02 02:26:00,31.9,30.6,29.95,ENE,68,0.0,0.0,95,0.00,,,0.00,WUHU216HW,2013-02-02 10:26:00,
2013-02-02 02:31:00,31.7,30.4,29.94,ENE,68,0.0,0.0,95,0.00,,,0.00,WUHU216HW,2013-02-02 10:31:00,
2013-02-02 02:36:00,31.7,30.4,29.94,ENE,68,0.0,0.0,95,0.00,,,0.00,WUHU216HW,2013-02-02 10:36:00,
2013-02-02 02:41:00,31.7,30.4,29.94,ENE,68,0.0,0.0,95,0.00,,,0.00,WUHU216HW,2013-02-02 10:41:00,
2013-02-02 02:46:00,31.7,30.4,29.95,ENE,68,0.0,0.0,95,0.00,,,0.00,WUHU216HW,2013-02-02 10:46:00,
2013-02-02 02:51:00,31.7,30.4,29.94,ENE,68,0.0,0.0,95,0.00,,,0.00,WUHU216HW,2013-02-02 10:51:00,
2013-02-02 02:56:00,31.7,30.4,29.94,ENE,68,0.0,0.2,95,0.00,,,0.00,WUHU216HW,2013-02-02 10:56:00,
2013-02-02 03:01:00,31.5,30.2,29.94,ENE,68,0.0,0.2,95,0.00,,,0.00,WUHU216HW,2013-02-02 11:01:00,
2013-02-02 03:06:00,31.5,30.2,29.93,ENE,68,0.0,0.0,95,0.00,,,0.00,WUHU216HW,2013-02-02 11:06:00,
2013-02-02 03:11:00,31.5,30.2,29.93,ENE,68,0.0,0.0,95,0.00,,,0.00,WUHU216HW,2013-02-02 11:11:00,
2013-02-02 03:16:00,31.5,30.2,29.93,ENE,68,0.0,0.0,95,0.00,,,0.00,WUHU216HW,2013-02-02 11:16:00,
2013-02-02 03:21:00,31.7,30.4,29.93,ENE,68,0.0,0.0,95,0.00,,,0.00,WUHU216HW,2013-02-02 11:21:00,
2013-02-02 03:26:00,31.5,30.2,29.92,ENE,68,0.0,0.0,95,0.00,,,0.00,WUHU216HW,2013-02-02 11:26:00,
2013-02-02 03:31:00,31.5,30.2,29.93,ENE,68,0.0,0.0,95,0.00,,,0.00,WUHU216HW,2013-02-02 11:31:00,
2013-02-02 03:36:00,31.5,30.2,29.92,ENE,68,0.0,0.0,95,0.00,,,0.00,WUHU216HW,2013-02-02 11:36:00,
2013-02-02 03:41:00,31.3,30.1,29.92,ENE,68,0.0,0.0,95,0.00,,,0.00,WUHU216HW,2013-02-02 11:41:00,
2013-02-02 03:46:00,31.3,30.1,29.92,ENE,68,0.0,0.0,95,0.00,,,0.00,WUHU216HW,2013-02-02 11:46:00,
2013-02-02 03:51:00,31.3,30.1,29.92,ENE,68,0.0,0.0,95,0.00,,,0.00,WUHU216HW,2013-02-02 11:51:00,
2013-02-02 03:56:00,31.3,30.1,29.92,ENE,68,0.0,0.0,95,0.00,,,0.00,WUHU216HW,2013-02-02 11:56:00,
2013-02-02 04:01:00,31.3,30.1,29.92,ENE,68,0.7,0.9,95,0.00,,,0.00,WUHU216HW,2013-02-02 12:01:00,
2013-02-02 04:06:00,31.3,30.1,29.92,ENE,68,0.0,0.9,95,0.00,,,0.00,WUHU216HW,2013-02-02 12:06:00,
2013-02-02 04:11:00,31.3,30.1,29.92,ENE,68,0.4,0.9,95,0.00,,,0.00,WUHU216HW,2013-02-02 12:11:00,
2013-02-02 04:16:00,31.5,30.2,29.91,ENE,68,0.0,0.7,95,0.00,,,0.00,WUHU216HW,2013-02-02 12:16:00,
2013-02-02 04:21:00,31.7,30.4,29.91,ENE,68,0.4,1.1,95,0.00,,,0.00,WUHU216HW,2013-02-02 12:21:00,
2013-02-02 04:26:00,31.7,30.4,29.91,ENE,68,0.0,1.1,95,0.00,,,0.00,WUHU216HW,2013-02-02 12:26:00,
2013-02-02 04:31:00,32.0,30.8,29.91,ENE,68,0.0,0.4,95,0.00,,,0.00,WUHU216HW,2013-02-02 12:31:00,
2013-02-02 04:36:00,32.0,30.8,29.91,ENE,68,0.2,1.1,95,0.00,,,0.00,WUHU216HW,2013-02-02 12:36:00,
2013-02-02 04:41:00,32.2,31.0,29.91,ENE,68,0.0,1.1,95,0.00,,,0.00,WUHU216HW,2013-02-02 12:41:00,
2013-02-02 04:46:00,32.4,31.2,29.91,ENE,68,0.0,0.4,95,0.00,,,0.00,WUHU216HW,2013-02-02 12:46:00,
2013-02-02 04:51:00,32.4,31.2,29.91,ENE,68,0.0,0.0,95,0.00,,,0.00,WUHU216HW,2013-02-02 12:51:00,
2013-02-02 04:56:00,32.6,31.3,29.91,ENE,68,0.0,0.0,95,0.00,,,0.00,WUHU216HW,2013-02-02 12:56:00,
2013-02-02 05:01:00,32.6,31.3,29.91,ENE,68,0.0,0.0,95,0.00,,,0.00,WUHU216HW,2013-02-02 13:01:00,
2013-02-02 05:06:00,32.6,31.3,29.91,ENE,68,0.0,0.0,95,0.00,,,0.00,WUHU216HW,2013-02-02 13:06:00,
2013-02-02 05:11:00,32.6,31.3,29.91,ENE,68,0.0,0.2,95,0.00,,,0.00,WUHU216HW,2013-02-02 13:11:00,
2013-02-02 05:16:00,32.6,31.3,29.91,ENE,68,0.0,0.2,95,0.00,,,0.00,WUHU216HW,2013-02-02 13:16:00,
2013-02-02 05:21:00,32.8,31.5,29.91,ENE,68,0.0,0.0,95,0.00,,,0.00,WUHU216HW,2013-02-02 13:21:00,
2013-02-02 05:26:00,32.6,31.3,29.91,ENE,68,0.0,0.0,95,0.00,,,0.00,WUHU216HW,2013-02-02 13:26:00,
2013-02-02 05:31:00,32.6,31.3,29.91,ENE,68,0.0,0.0,95,0.00,,,0.00,WUHU216HW,2013-02-02 13:31:00,
2013-02-02 05:36:00,32.6,31.3,29.90,ENE,68,0.0,0.0,95,0.00,,,0.00,WUHU216HW,2013-02-02 13:36:00,
2013-02-02 05:41:00,32.8,31.5,29.90,ENE,68,0.0,0.0,95,0.00,,,0.00,WUHU216HW,2013-02-02 13:41:00,
2013-02-02 05:46:00,32.6,31.3,29.90,ENE,68,0.0,0.0,95,0.00,,,0.00,WUHU216HW,2013-02-02 13:46:00,
2013-02-02 05:51:00,32.8,31.5,29.90,ENE,68,0.0,0.0,95,0.00,,,0.00,WUHU216HW,2013-02-02 13:51:00,
2013-02-02 05:56:00,32.8,31.5,29.90,ENE,68,0.0,0.0,95,0.00,,,0.00,WUHU216HW,2013-02-02 13:56:00,
2013-02-02 06:01:00,32.8,31.5,29.89,ENE,68,0.0,0.0,95,0.00,,,0.00,WUHU216HW,2013-02-02 14:01:00,
2013-02-02 06:06:00,32.8,31.5,29.90,ENE,68,0.0,0.0,95,0.00,,,0.00,WUHU216HW,2013-02-02 14:06:00,
2013-02-02 06:11:00,32.6,31.3,29.89,ENE,68,0.0,1.1,95,0.00,,,0.00,WUHU216HW,2013-02-02 14:11:00,
2013-02-02 06:16:00,32.6,31.3,29.89,ENE,68,0.0,1.1,95,0.00,,,0.00,WUHU216HW,2013-02-02 14:16:00,
2013-02-02 06:21:00,32.6,31.3,29.89,ENE,68,0.0,0.9,95,0.00,,,0.00,WUHU216HW,2013-02-02 14:21:00,
2013-02-02 06:26:00,32.4,31.2,29.89,ENE,68,0.0,0.0,95,0.00,,,0.00,WUHU216HW,2013-02-02 14:26:00,
2013-02-02 06:31:00,32.2,31.0,29.89,ENE,68,0.0,0.0,95,0.00,,,0.00,WUHU216HW,2013-02-02 14:31:00,
2013-02-02 06:36:00,32.0,30.8,29.89,ENE,68,0.0,0.0,95,0.00,,,0.00,WUHU216HW,2013-02-02 14:36:00,
2013-02-02 06:41:00,32.0,30.8,29.89,ENE,68,0.0,0.0,95,0.00,,,0.00,WUHU216HW,2013-02-02 14:41:00,
2013-02-02 06:46:00,31.9,30.6,29.89,ENE,68,0.0,0.0,95,0.00,,,0.00,WUHU216HW,2013-02-02 14:46:00,
2013-02-02 06:51:00,31.9,30.6,29.90,ENE,68,0.0,0.0,95,0.00,,,0.00,WUHU216HW,2013-02-02 14:51:00,
2013-02-02 06:56:00,31.9,30.6,29.89,ENE,68,0.0,0.0,95,0.00,,,0.00,WUHU216HW,2013-02-02 14:56:00,
2013-02-02 07:01:00,32.0,30.8,29.89,ENE,68,0.2,0.2,95,0.00,,,0.00,WUHU216HW,2013-02-02 15:01:00,
2013-02-02 07:06:00,32.0,30.8,29.90,ENE,68,0.0,0.2,95,0.00,,,0.00,WUHU216HW,2013-02-02 15:06:00,
2013-02-02 07:11:00,31.9,30.6,29.89,ENE,68,0.0,0.2,95,0.00,,,0.00,WUHU216HW,2013-02-02 15:11:00,
2013-02-02 07:16:00,31.7,30.4,29.89,ENE,68,0.0,0.0,95,0.00,,,0.00,WUHU216HW,2013-02-02 15:16:00,
2013-02-02 07:21:00,31.7,30.4,29.89,ENE,68,0.0,0.0,95,0.00,,,0.00,WUHU216HW,2013-02-02 15:21:00,
2013-02-02 07:26:00,31.7,30.4,29.90,ENE,68,0.0,0.0,95,0.00,,,0.00,WUHU216HW,2013-02-02 15:26:00,
2013-02-02 07:31:00,31.7,30.4,29.89,ENE,68,0.0,0.0,95,0.00,,,0.00,WUHU216HW,2013-02-02 15:31:00,
2013-02-02 07:36:00,31.7,30.4,29.89,ENE,68,0.0,0.0,95,0.00,,,0.00,WUHU216HW,2013-02-02 15:36:00,
2013-02-02 07:41:00,31.7,30.4,29.89,ENE,68,0.0,0.0,95,0.00,,,0.00,WUHU216HW,2013-02-02 15:41:00,
2013-02-02 07:46:00,31.7,30.4,29.89,ENE,68,0.7,1.3,95,0.00,,,0.00,WUHU216HW,2013-02-02 15:46:00,
2013-02-02 07:51:00,31.7,30.4,29.90,ENE,68,0.0,1.3,95,0.00,,,0.00,WUHU216HW,2013-02-02 15:51:00,
2013-02-02 07:56:00,32.0,31.1,29.90,ENE,68,0.0,0.9,96,0.00,,,0.00,WUHU216HW,2013-02-02 15:56:00,
2013-02-02 08:01:00,32.8,31.5,29.90,ENE,68,0.0,0.2,95,0.00,,,0.00,WUHU216HW,2013-02-02 16:01:00,
2013-02-02 08:06:00,32.2,31.0,29.89,ENE,68,0.0,0.0,95,0.00,,,0.00,WUHU216HW,2013-02-02 16:06:00,
2013-02-02 08:11:00,32.0,30.8,29.90,ENE,68,0.0,0.0,95,0.00,,,0.00,WUHU216HW,2013-02-02 16:11:00,
2013-02-02 08:16:00,32.0,30.8,29.90,ENE,68,0.0,0.0,95,0.00,,,0.00,WUHU216HW,2013-02-02 16:16:00,
2013-02-02 08:21:00,32.0,30.8,29.89,ENE,68,0.0,0.0,95,0.00,,,0.00,WUHU216HW,2013-02-02 16:21:00,
2013-02-02 08:26:00,31.9,30.6,29.89,ENE,68,0.0,1.1,95,0.00,,,0.00,WUHU216HW,2013-02-02 16:26:00,
2013-02-02 08:31:00,31.9,30.6,29.89,ENE,68,0.0,1.1,95,0.00,,,0.00,WUHU216HW,2013-02-02 16:31:00,
2013-02-02 08:36:00,31.9,30.6,29.90,ENE,68,0.0,0.0,95,0.00,,,0.00,WUHU216HW,2013-02-02 16:36:00,
2013-02-02 08:41:00,32.0,30.8,29.90,ENE,68,0.0,0.2,95,0.00,,,0.00,WUHU216HW,2013-02-02 16:41:00,
2013-02-02 08:46:00,32.2,31.0,29.90,ENE,68,0.2,0.7,95,0.00,,,0.00,WUHU216HW,2013-02-02 16:46:00,
2013-02-02 08:51:00,32.4,31.2,29.90,ENE,68,0.0,0.7,95,0.00,,,0.00,WUHU216HW,2013-02-02 16:51:00,
2013-02-02 08:56:00,32.4,31.2,29.89,ENE,68,0.0,0.2,95,0.00,,,0.00,WUHU216HW,2013-02-02 16:56:00,
2013-02-02 09:01:00,32.4,31.2,29.89,ENE,68,0.0,0.0,95,0.00,,,0.00,WUHU216HW,2013-02-02 17:01:00,
2013-02-02 09:06:00,32.4,31.2,29.90,ENE,68,0.0,0.0,95,0.00,,,0.00,WUHU216HW,2013-02-02 17:06:00,
2013-02-02 09:11:00,32.8,31.5,29.89,ENE,68,0.9,0.9,95,0.00,,,0.00,WUHU216HW,2013-02-02 17:11:00,
2013-02-02 09:16:00,32.8,31.5,29.90,ENE,68,0.0,0.9,95,0.00,,,0.00,WUHU216HW,2013-02-02 17:16:00,
2013-02-02 09:21:00,32.8,31.5,29.90,ENE,68,0.0,0.9,95,0.00,,,0.00,WUHU216HW,2013-02-02 17:21:00,
2013-02-02 09:26:00,32.9,31.7,29.89,ENE,68,0.2,0.7,95,0.00,,,0.00,WUHU216HW,2013-02-02 17:26:00,
2013-02-02 09:31:00,33.1,31.8,29.90,ENE,68,0.0,0.2,95,0.00,,,0.00,WUHU216HW,2013-02-02 17:31:00,
2013-02-02 09:36:00,33.5,32.1,29.89,ENE,68,1.1,1.1,95,0.00,,,0.00,WUHU216HW,2013-02-02 17:36:00,
2013-02-02 09:41:00,33.5,32.1,29.89,ENE,68,0.0,1.1,95,0.00,,,0.00,WUHU216HW,2013-02-02 17:41:00,
2013-02-02 09:46:00,33.7,32.3,29.89,ENE,68,0.0,1.3,95,0.00,,,0.00,WUHU216HW,2013-02-02 17:46:00,
2013-02-02 09:51:00,33.8,32.5,29.89,ENE,68,0.0,1.3,95,0.00,,,0.00,WUHU216HW,2013-02-02 17:51:00,
2013-02-02 09:56:00,34.2,32.9,29.89,ENE,68,0.4,0.4,95,0.00,,,0.00,WUHU216HW,2013-02-02 17:56:00,
2013-02-02 10:01:00,34.2,32.9,29.89,ENE,68,0.0,0.7,95,0.00,,,0.00,WUHU216HW,2013-02-02 18:01:00,
2013-02-02 10:06:00,34.2,32.9,29.89,NE,45,1.3,1.3,95,0.00,,,0.00,WUHU216HW,2013-02-02 18:06:00,
2013-02-02 10:11:00,34.4,33.0,29.89,North,0,0.0,1.8,95,0.00,,,0.00,WUHU216HW,2013-02-02 18:11:00,
2013-02-02 10:16:00,34.6,33.2,29.88,SW,225,1.1,1.8,95,0.00,,,0.00,WUHU216HW,2013-02-02 18:16:00,
2013-02-02 10:21:00,34.9,33.6,29.89,SW,225,1.3,1.6,95,0.00,,,0.00,WUHU216HW,2013-02-02 18:21:00,
2013-02-02 10:26:00,35.1,33.8,29.89,West,270,1.3,2.2,95,0.00,,,0.00,WUHU216HW,2013-02-02 18:26:00,
2013-02-02 10:31:00,35.6,34.6,29.89,SW,225,0.7,2.2,96,0.00,,,0.00,WUHU216HW,2013-02-02 18:31:00,
2013-02-02 10:36:00,35.6,34.6,29.89,SSW,203,1.1,2.5,96,0.00,,,0.00,WUHU216HW,2013-02-02 18:36:00,
2013-02-02 10:41:00,35.6,34.6,29.90,South,180,0.4,2.5,96,0.00,,,0.00,WUHU216HW,2013-02-02 18:41:00,
2013-02-02 10:46:00,36.0,34.9,29.89,NNW,338,0.0,2.2,96,0.00,,,0.00,WUHU216HW,2013-02-02 18:46:00,
2013-02-02 10:51:00,36.0,34.9,29.89,West,270,0.4,2.7,96,0.00,,,0.00,WUHU216HW,2013-02-02 18:51:00,
2013-02-02 10:56:00,36.4,35.6,29.89,South,180,0.4,2.7,97,0.00,,,0.00,WUHU216HW,2013-02-02 18:56:00,
2013-02-02 11:01:00,36.4,35.6,29.89,WSW,248,0.0,2.5,97,0.00,,,0.00,WUHU216HW,2013-02-02 19:01:00,
2013-02-02 11:06:00,36.9,36.1,29.89,West,270,0.2,0.9,97,0.00,,,0.00,WUHU216HW,2013-02-02 19:06:00,
2013-02-02 11:11:00,37.1,36.3,29.89,SW,225,0.4,1.8,97,0.00,,,0.00,WUHU216HW,2013-02-02 19:11:00,
2013-02-02 11:16:00,37.3,36.2,29.89,West,270,1.6,2.0,96,0.00,,,0.00,WUHU216HW,2013-02-02 19:16:00,
2013-02-02 11:21:00,37.4,36.4,29.89,NNW,338,0.2,2.0,96,0.00,,,0.00,WUHU216HW,2013-02-02 19:21:00,
2013-02-02 11:26:00,37.4,36.4,29.89,North,0,1.1,1.8,96,0.00,,,0.00,WUHU216HW,2013-02-02 19:26:00,
2013-02-02 11:31:00,37.4,36.4,29.89,WNW,293,0.0,1.8,96,0.00,,,0.00,WUHU216HW,2013-02-02 19:31:00,
2013-02-02 11:36:00,37.6,36.5,29.88,SW,225,0.0,1.6,96,0.00,,,0.00,WUHU216HW,2013-02-02 19:36:00,
2013-02-02 11:41:00,37.8,36.7,29.88,NNE,23,0.7,1.6,96,0.00,,,0.00,WUHU216HW,2013-02-02 19:41:00,
2013-02-02 11:46:00,38.0,36.9,29.88,SW,225,0.9,2.0,96,0.00,,,0.00,WUHU216HW,2013-02-02 19:46:00,
2013-02-02 11:51:00,38.2,37.1,29.88,WNW,293,1.1,2.0,96,0.00,,,0.00,WUHU216HW,2013-02-02 19:51:00,
2013-02-02 11:56:00,38.0,36.9,29.88,SSW,203,2.5,2.5,96,0.00,,,0.00,WUHU216HW,2013-02-02 19:56:00,
2013-02-02 12:01:00,38.0,36.9,29.87,SW,225,2.0,2.9,96,0.00,,,0.00,WUHU216HW,2013-02-02 20:01:00,
2013-02-02 12:06:00,38.2,37.1,29.87,ENE,68,0.0,2.9,96,0.00,,,0.00,WUHU216HW,2013-02-02 20:06:00,
2013-02-02 12:11:00,38.3,37.3,29.87,SSW,203,0.0,2.0,96,0.00,,,0.00,WUHU216HW,2013-02-02 20:11:00,
2013-02-02 12:16:00,38.5,37.4,29.87,SSW,203,0.9,2.5,96,0.00,,,0.00,WUHU216HW,2013-02-02 20:16:00,
2013-02-02 12:21:00,38.7,37.6,29.86,South,180,1.1,2.7,96,0.00,,,0.00,WUHU216HW,2013-02-02 20:21:00,
2013-02-02 12:26:00,38.9,37.8,29.86,SE,135,0.0,2.7,96,0.00,,,0.00,WUHU216HW,2013-02-02 20:26:00,
2013-02-02 12:31:00,39.1,38.0,29.86,WNW,293,0.0,1.8,96,0.00,,,0.00,WUHU216HW,2013-02-02 20:31:00,
2013-02-02 12:36:00,39.2,38.2,29.86,WSW,248,0.7,1.8,96,0.00,,,0.00,WUHU216HW,2013-02-02 20:36:00,
2013-02-02 12:41:00,39.4,38.3,29.86,SSE,158,0.0,2.9,96,0.00,,,0.00,WUHU216HW,2013-02-02 20:41:00,
2013-02-02 12:46:00,39.6,38.5,29.86,NE,45,0.9,2.9,96,0.00,,,0.00,WUHU216HW,2013-02-02 20:46:00,
2013-02-02 12:51:00,39.6,38.5,29.86,WSW,248,0.4,1.3,96,0.00,,,0.00,WUHU216HW,2013-02-02 20:51:00,
2013-02-02 12:56:00,39.6,38.5,29.86,SW,225,2.2,2.2,96,0.00,,,0.00,WUHU216HW,2013-02-02 20:56:00,
2013-02-02 13:01:00,40.0,38.9,29.86,South,180,0.9,2.2,96,0.00,,,0.00,WUHU216HW,2013-02-02 21:01:00,
2013-02-02 13:06:00,40.0,38.9,29.86,ENE,68,0.2,2.2,96,0.00,,,0.00,WUHU216HW,2013-02-02 21:06:00,
2013-02-02 13:11:00,40.0,38.9,29.86,NE,45,0.0,1.1,96,0.00,,,0.00,WUHU216HW,2013-02-02 21:11:00,
2013-02-02 13:16:00,40.1,39.1,29.85,SW,225,0.9,1.3,96,0.00,,,0.00,WUHU216HW,2013-02-02 21:16:00,
2013-02-02 13:21:00,40.3,39.2,29.85,SW,225,0.7,1.8,96,0.00,,,0.00,WUHU216HW,2013-02-02 21:21:00,
2013-02-02 13:26:00,40.3,39.2,29.85,NNW,338,0.0,1.8,96,0.00,,,0.00,WUHU216HW,2013-02-02 21:26:00,
2013-02-02 13:31:00,40.5,39.4,29.84,WNW,293,0.4,0.9,96,0.00,,,0.00,WUHU216HW,2013-02-02 21:31:00,
2013-02-02 13:36:00,40.7,39.6,29.84,SSW,203,0.4,1.6,96,0.00,,,0.00,WUHU216HW,2013-02-02 21:36:00,
2013-02-02 13:41:00,40.7,39.6,29.84,SW,225,1.8,1.8,96,0.00,,,0.00,WUHU216HW,2013-02-02 21:41:00,
2013-02-02 13:46:00,40.9,39.8,29.84,South,180,1.6,2.5,96,0.00,,,0.00,WUHU216HW,2013-02-02 21:46:00,
2013-02-02 13:51:00,41.0,40.0,29.84,South,180,0.9,2.5,96,0.00,,,0.00,WUHU216HW,2013-02-02 21:51:00,
2013-02-02 13:56:00,41.0,40.0,29.84,WSW,248,0.2,1.8,96,0.00,,,0.00,WUHU216HW,2013-02-02 21:56:00,
2013-02-02 14:01:00,41.2,40.1,29.84,WSW,248,0.7,1.8,96,0.00,,,0.00,WUHU216HW,2013-02-02 22:01:00,
2013-02-02 14:06:00,41.4,40.3,29.83,WSW,248,1.3,2.7,96,0.00,,,0.00,WUHU216HW,2013-02-02 22:06:00,
2013-02-02 14:11:00,41.4,40.3,29.83,West,270,0.9,2.7,96,0.00,,,0.00,WUHU216HW,2013-02-02 22:11:00,
2013-02-02 14:16:00,41.4,40.3,29.83,West,270,1.1,1.6,96,0.00,,,0.00,WUHU216HW,2013-02-02 22:16:00,
2013-02-02 14:21:00,41.4,40.3,29.83,SW,225,0.7,2.5,96,0.00,,,0.00,WUHU216HW,2013-02-02 22:21:00,
2013-02-02 14:26:00,41.4,40.3,29.83,SSW,203,0.0,2.5,96,0.00,,,0.00,WUHU216HW,2013-02-02 22:26:00,
2013-02-02 14:31:00,41.2,40.1,29.84,SSW,203,2.2,2.2,96,0.00,,,0.00,WUHU216HW,2013-02-02 22:31:00,
2013-02-02 14:36:00,41.0,40.0,29.84,West,270,1.6,2.2,96,0.00,,,0.00,WUHU216HW,2013-02-02 22:36:00,
2013-02-02 14:41:00,40.9,39.8,29.84,SW,225,1.3,2.2,96,0.00,,,0.00,WUHU216HW,2013-02-02 22:41:00,
2013-02-02 14:46:00,40.9,39.8,29.84,South,180,1.8,4.0,96,0.00,,,0.00,WUHU216HW,2013-02-02 22:46:00,
2013-02-02 14:51:00,41.0,40.0,29.83,WSW,248,0.7,4.0,96,0.00,,,0.00,WUHU216HW,2013-02-02 22:51:00,
2013-02-02 14:56:00,41.0,40.0,29.83,South,180,2.7,3.4,96,0.00,,,0.00,WUHU216HW,2013-02-02 22:56:00,
2013-02-02 15:01:00,41.0,40.0,29.83,North,0,1.1,3.4,96,0.00,,,0.00,WUHU216HW,2013-02-02 23:01:00,
2013-02-02 15:06:00,41.0,40.0,29.84,NE,45,1.1,2.7,96,0.00,,,0.00,WUHU216HW,2013-02-02 23:06:00,
2013-02-02 15:11:00,40.9,39.8,29.83,NW,315,0.2,1.8,96,0.00,,,0.00,WUHU216HW,2013-02-02 23:11:00,
2013-02-02 15:16:00,40.9,39.8,29.83,West,270,0.4,1.8,96,0.00,,,0.00,WUHU216HW,2013-02-02 23:16:00,
2013-02-02 15:21:00,40.9,39.8,29.83,SW,225,0.7,1.1,96,0.00,,,0.00,WUHU216HW,2013-02-02 23:21:00,
2013-02-02 15:26:00,41.0,40.0,29.83,South,180,0.4,2.2,96,0.00,,,0.00,WUHU216HW,2013-02-02 23:26:00,
2013-02-02 15:31:00,40.9,39.8,29.83,WSW,248,1.8,2.2,96,0.00,,,0.00,WUHU216HW,2013-02-02 23:31:00,
2013-02-02 15:36:00,40.9,39.8,29.83,West,270,0.9,2.0,96,0.00,,,0.00,WUHU216HW,2013-02-02 23:36:00,
2013-02-02 15:41:00,40.9,39.8,29.83,North,0,1.8,1.8,96,0.00,,,0.00,WUHU216HW,2013-02-02 23:41:00,
2013-02-02 15:46:00,40.9,39.8,29.83,NW,315,0.4,2.2,96,0.00,,,0.00,WUHU216HW,2013-02-02 23:46:00,
2013-02-02 15:51:00,40.9,39.8,29.83,ENE,68,1.6,2.2,96,0.00,,,0.00,WUHU216HW,2013-02-02 23:51:00,
2013-02-02 15:56:00,40.9,39.8,29.83,NNE,23,0.0,1.6,96,0.00,,,0.00,WUHU216HW,2013-02-02 23:56:00,
2013-02-02 16:01:00,40.9,39.8,29.83,SW,225,1.1,1.6,96,0.00,,,0.00,WUHU216HW,2013-02-03 00:01:00,
2013-02-02 16:06:00,40.7,39.6,29.83,South,180,1.1,1.3,96,0.00,,,0.00,WUHU216HW,2013-02-03 00:06:00,
2013-02-02 16:11:00,40.7,39.6,29.83,NW,315,0.0,1.3,96,0.00,,,0.00,WUHU216HW,2013-02-03 00:11:00,
2013-02-02 16:16:00,40.7,39.6,29.83,North,0,0.4,1.6,96,0.00,,,0.00,WUHU216HW,2013-02-03 00:16:00,
2013-02-02 16:21:00,40.7,39.6,29.83,NNE,23,0.4,1.6,96,0.00,,,0.00,WUHU216HW,2013-02-03 00:21:00,
2013-02-02 16:26:00,40.5,39.4,29.83,NNE,23,0.7,1.8,96,0.00,,,0.00,WUHU216HW,2013-02-03 00:26:00,
2013-02-02 16:31:00,40.5,39.4,29.83,North,0,0.9,1.8,96,0.00,,,0.00,WUHU216HW,2013-02-03 00:31:00,
2013-02-02 16:36:00,40.3,39.2,29.83,NNE,23,0.9,1.8,96,0.00,,,0.00,WUHU216HW,2013-02-03 00:36:00,
2013-02-02 16:41:00,40.1,39.1,29.83,NNE,23,0.9,0.9,96,0.00,,,0.00,WUHU216HW,2013-02-03 00:41:00,
2013-02-02 16:46:00,40.1,39.1,29.83,North,0,0.7,1.6,96,0.00,,,0.00,WUHU216HW,2013-02-03 00:46:00,
2013-02-02 16:51:00,40.1,39.1,29.83,North,0,2.0,2.2,96,0.00,,,0.00,WUHU216HW,2013-02-03 00:51:00,
2013-02-02 16:56:00,40.0,38.9,29.83,NNE,23,1.3,2.2,96,0.00,,,0.00,WUHU216HW,2013-02-03 00:56:00,
2013-02-02 17:01:00,40.0,38.9,29.83,North,0,0.4,2.5,96,0.00,,,0.00,WUHU216HW,2013-02-03 01:01:00,
2013-02-02 17:06:00,40.0,38.9,29.83,North,0,0.9,2.5,96,0.00,,,0.00,WUHU216HW,2013-02-03 01:06:00,
2013-02-02 17:11:00,40.0,38.9,29.83,West,270,0.4,1.3,96,0.00,,,0.00,WUHU216HW,2013-02-03 01:11:00,
2013-02-02 17:16:00,39.8,38.7,29.83,NNE,23,2.0,2.5,96,0.00,,,0.00,WUHU216HW,2013-02-03 01:16:00,
2013-02-02 17:21:00,40.0,38.9,29.83,North,0,0.0,2.5,96,0.00,,,0.00,WUHU216HW,2013-02-03 01:21:00,
2013-02-02 17:26:00,40.0,38.9,29.83,North,0,0.0,0.0,96,0.00,,,0.00,WUHU216HW,2013-02-03 01:26:00,
2013-02-02 17:31:00,40.0,38.9,29.83,North,0,0.4,1.1,96,0.00,,,0.00,WUHU216HW,2013-02-03 01:31:00,
2013-02-02 17:36:00,40.0,38.9,29.83,North,0,0.0,1.1,96,0.00,,,0.00,WUHU216HW,2013-02-03 01:36:00,
2013-02-02 17:41:00,39.8,38.7,29.84,North,0,0.4,0.9,96,0.00,,,0.00,WUHU216HW,2013-02-03 01:41:00,
2013-02-02 17:46:00,39.8,38.7,29.83,NE,45,1.3,1.3,96,0.00,,,0.00,WUHU216HW,2013-02-03 01:46:00,
2013-02-02 17:51:00,39.8,38.7,29.84,NE,45,0.4,1.3,96,0.00,,,0.00,WUHU216HW,2013-02-03 01:51:00,
2013-02-02 17:56:00,39.8,38.7,29.84,ENE,68,0.4,1.3,96,0.00,,,0.00,WUHU216HW,2013-02-03 01:56:00,
2013-02-02 18:01:00,39.8,38.7,29.83,East,90,0.4,1.1,96,0.00,,,0.00,WUHU216HW,2013-02-03 02:01:00,
2013-02-02 18:06:00,39.8,38.7,29.83,ENE,68,0.0,0.7,96,0.00,,,0.00,WUHU216HW,2013-02-03 02:06:00,
2013-02-02 18:11:00,39.8,38.7,29.83,ENE,68,0.0,0.4,96,0.00,,,0.00,WUHU216HW,2013-02-03 02:11:00,
2013-02-02 18:16:00,39.6,38.5,29.83,South,180,0.9,0.9,96,0.00,,,0.00,WUHU216HW,2013-02-03 02:16:00,
2013-02-02 18:21:00,39.6,38.5,29.83,SW,225,0.7,1.1,96,0.00,,,0.00,WUHU216HW,2013-02-03 02:21:00,
2013-02-02 18:26:00,39.6,38.5,29.84,West,270,0.4,1.1,96,0.00,,,0.00,WUHU216HW,2013-02-03 02:26:00,
2013-02-02 18:31:00,39.4,38.3,29.84,WSW,248,0.0,0.9,96,0.00,,,0.00,WUHU216HW,2013-02-03 02:31:00,
2013-02-02 18:36:00,39.4,38.3,29.83,WSW,248,0.0,0.4,96,0.00,,,0.00,WUHU216HW,2013-02-03 02:36:00,
2013-02-02 18:41:00,39.4,38.3,29.83,WSW,248,0.0,0.0,96,0.00,,,0.00,WUHU216HW,2013-02-03 02:41:00,
2013-02-02 18:46:00,39.4,38.3,29.83,NNW,338,0.0,0.0,96,0.00,,,0.00,WUHU216HW,2013-02-03 02:46:00,
2013-02-02 18:51:00,39.2,38.2,29.83,NW,315,0.2,0.4,96,0.00,,,0.00,WUHU216HW,2013-02-03 02:51:00,
2013-02-02 18:56:00,39.2,38.2,29.83,North,0,0.0,0.7,96,0.00,,,0.00,WUHU216HW,2013-02-03 02:56:00,
2013-02-02 19:01:00,39.2,38.2,29.84,SSW,203,0.4,1.1,96,0.00,,,0.00,WUHU216HW,2013-02-03 03:01:00,
2013-02-02 19:06:00,39.2,38.2,29.84,North,0,0.4,1.1,96,0.00,,,0.00,WUHU216HW,2013-02-03 03:06:00,
2013-02-02 19:11:00,39.2,38.2,29.84,North,0,0.0,0.4,96,0.00,,,0.00,WUHU216HW,2013-02-03 03:11:00,
2013-02-02 19:16:00,39.2,38.2,29.83,North,0,0.0,0.4,96,0.00,,,0.00,WUHU216HW,2013-02-03 03:16:00,
2013-02-02 19:21:00,39.1,38.0,29.84,NNW,338,0.4,0.7,96,0.00,,,0.00,WUHU216HW,2013-02-03 03:21:00,
2013-02-02 19:26:00,39.1,38.0,29.84,NNW,338,0.0,0.7,96,0.00,,,0.00,WUHU216HW,2013-02-03 03:26:00,
2013-02-02 19:31:00,39.2,38.2,29.84,ENE,68,0.0,0.7,96,0.00,,,0.00,WUHU216HW,2013-02-03 03:31:00,
2013-02-02 19:36:00,39.2,38.2,29.84,SE,135,0.0,0.7,96,0.00,,,0.00,WUHU216HW,2013-02-03 03:36:00,
2013-02-02 19:41:00,39.1,38.0,29.84,SSE,158,0.0,0.0,96,0.00,,,0.00,WUHU216HW,2013-02-03 03:41:00,
2013-02-02 19:46:00,39.2,38.2,29.84,SSE,158,0.0,0.0,96,0.00,,,0.00,WUHU216HW,2013-02-03 03:46:00,
2013-02-02 19:51:00,39.1,38.0,29.84,North,0,0.9,0.9,96,0.00,,,0.00,WUHU216HW,2013-02-03 03:51:00,
2013-02-02 19:56:00,38.9,37.8,29.83,North,0,0.4,1.1,96,0.00,,,0.00,WUHU216HW,2013-02-03 03:56:00,
2013-02-02 20:01:00,38.9,37.8,29.83,NE,45,0.7,1.1,96,0.00,,,0.00,WUHU216HW,2013-02-03 04:01:00,
2013-02-02 20:06:00,38.9,37.8,29.83,NE,45,0.4,1.1,96,0.00,,,0.00,WUHU216HW,2013-02-03 04:06:00,
2013-02-02 20:11:00,38.7,37.6,29.83,ENE,68,0.2,1.1,96,0.00,,,0.00,WUHU216HW,2013-02-03 04:11:00,
2013-02-02 20:16:00,38.7,37.6,29.83,ESE,113,0.0,1.8,96,0.00,,,0.00,WUHU216HW,2013-02-03 04:16:00,
2013-02-02 20:21:00,38.5,37.4,29.83,SSE,158,0.0,1.8,96,0.00,,,0.00,WUHU216HW,2013-02-03 04:21:00,
2013-02-02 20:26:00,38.5,37.4,29.83,WSW,248,0.0,1.1,96,0.00,,,0.00,WUHU216HW,2013-02-03 04:26:00,
2013-02-02 20:31:00,38.3,37.3,29.83,WSW,248,0.0,0.4,96,0.00,,,0.00,WUHU216HW,2013-02-03 04:31:00,
2013-02-02 20:36:00,38.3,37.3,29.83,NNE,23,0.2,0.9,96,0.00,,,0.00,WUHU216HW,2013-02-03 04:36:00,
2013-02-02 20:41:00,38.2,37.1,29.83,NNE,23,0.0,0.9,96,0.00,,,0.00,WUHU216HW,2013-02-03 04:41:00,
2013-02-02 20:46:00,38.2,37.1,29.84,West,270,0.7,1.1,96,0.00,,,0.00,WUHU216HW,2013-02-03 04:46:00,
2013-02-02 20:51:00,38.2,37.1,29.84,West,270,0.0,1.1,96,0.00,,,0.00,WUHU216HW,2013-02-03 04:51:00,
2013-02-02 20:56:00,38.3,37.3,29.84,West,270,0.0,0.7,96,0.00,,,0.00,WUHU216HW,2013-02-03 04:56:00,
2013-02-02 21:00:00,38.3,37.3,29.84,West,270,0.0,0.0,96,0.00,,,0.00,WUHU216HW,2013-02-03 05:00:00,
2013-02-02 21:01:00,38.3,37.3,29.84,West,270,0.0,0.0,96,0.00,,,0.00,WUHU216HW,2013-02-03 05:01:00,
2013-02-02 21:02:00,38.3,37.3,29.84,West,270,0.0,0.0,96,0.00,,,0.00,WUHU216HW,2013-02-03 05:02:00,
2013-02-02 21:07:00,38.3,37.3,29.83,West,270,0.0,0.0,96,0.00,,,0.00,WUHU216HW,2013-02-03 05:07:00,
2013-02-02 21:12:00,38.3,37.3,29.83,West,270,0.0,0.0,96,0.00,,,0.00,WUHU216HW,2013-02-03 05:12:00,
2013-02-02 21:17:00,38.2,37.1,29.83,WNW,293,0.0,0.0,96,0.00,,,0.00,WUHU216HW,2013-02-03 05:17:00,
2013-02-02 21:22:00,38.2,37.1,29.83,NNE,23,0.4,0.9,96,0.00,,,0.00,WUHU216HW,2013-02-03 05:22:00,
2013-02-02 21:27:00,38.2,37.1,29.83,NE,45,0.7,0.9,96,0.00,,,0.00,WUHU216HW,2013-02-03 05:27:00,
2013-02-02 21:32:00,38.2,37.1,29.83,ENE,68,1.1,1.1,96,0.00,,,0.00,WUHU216HW,2013-02-03 05:32:00,
2013-02-02 21:37:00,38.2,37.1,29.83,North,0,0.9,1.1,96,0.00,,,0.00,WUHU216HW,2013-02-03 05:37:00,
2013-02-02 21:42:00,38.2,37.1,29.84,North,0,0.0,1.1,96,0.00,,,0.00,WUHU216HW,2013-02-03 05:42:00,
2013-02-02 21:47:00,38.2,37.1,29.84,North,0,0.0,0.9,96,0.00,,,0.00,WUHU216HW,2013-02-03 05:47:00,
2013-02-02 21:52:00,38.2,37.1,29.83,NNE,23,0.9,0.9,96,0.00,,,0.00,WUHU216HW,2013-02-03 05:52:00,
2013-02-02 21:57:00,38.0,36.9,29.83,NE,45,1.3,1.6,96,0.00,,,0.00,WUHU216HW,2013-02-03 05:57:00,
2013-02-02 22:02:00,38.0,36.9,29.83,NNE,23,0.4,1.6,96,0.00,,,0.00,WUHU216HW,2013-02-03 06:02:00,
2013-02-02 22:07:00,37.8,36.7,29.83,North,0,1.3,2.2,96,0.00,,,0.00,WUHU216HW,2013-02-03 06:07:00,
2013-02-02 22:12:00,37.8,36.7,29.83,North,0,0.4,2.2,96,0.00,,,0.00,WUHU216HW,2013-02-03 06:12:00,
2013-02-02 22:17:00,37.8,36.7,29.83,North,0,0.0,1.3,96,0.00,,,0.00,WUHU216HW,2013-02-03 06:17:00,
2013-02-02 22:22:00,37.6,36.5,29.83,NNE,23,0.9,0.9,96,0.00,,,0.00,WUHU216HW,2013-02-03 06:22:00,
2013-02-02 22:27:00,37.6,36.5,29.83,ENE,68,0.4,1.1,96,0.00,,,0.00,WUHU216HW,2013-02-03 06:27:00,
2013-02-02 22:32:00,37.4,36.4,29.84,NE,45,0.0,1.1,96,0.00,,,0.00,WUHU216HW,2013-02-03 06:32:00,
2013-02-02 22:37:00,37.4,36.4,29.84,NE,45,0.0,0.4,96,0.00,,,0.00,WUHU216HW,2013-02-03 06:37:00,
2013-02-02 22:42:00,37.4,36.4,29.84,NE,45,0.0,0.4,96,0.00,,,0.00,WUHU216HW,2013-02-03 06:42:00,
2013-02-02 22:47:00,37.4,36.4,29.84,ENE,68,0.4,0.4,96,0.00,,,0.00,WUHU216HW,2013-02-03 06:47:00,
2013-02-02 22:52:00,37.4,36.4,29.84,NE,45,0.2,0.9,96,0.00,,,0.00,WUHU216HW,2013-02-03 06:52:00,
2013-02-02 22:57:00,37.4,36.4,29.84,NNE,23,0.0,0.9,96,0.00,,,0.00,WUHU216HW,2013-02-03 06:57:00,
2013-02-02 23:02:00,37.4,36.4,29.84,North,0,0.0,0.4,96,0.00,,,0.00,WUHU216HW,2013-02-03 07:02:00,
2013-02-02 23:07:00,37.4,36.4,29.84,NE,45,0.9,1.6,96,0.00,,,0.00,WUHU216HW,2013-02-03 07:07:00,
2013-02-02 23:12:00,37.3,36.2,29.84,NNE,23,0.2,1.6,96,0.00,,,0.00,WUHU216HW,2013-02-03 07:12:00,
2013-02-02 23:17:00,37.1,36.0,29.85,NNE,23,0.7,1.1,96,0.00,,,0.00,WUHU216HW,2013-02-03 07:17:00,
2013-02-02 23:22:00,37.1,36.0,29.85,NNE,23,0.0,1.1,96,0.00,,,0.00,WUHU216HW,2013-02-03 07:22:00,
2013-02-02 23:27:00,37.1,36.0,29.85,ESE,113,0.0,0.7,96,0.00,,,0.00,WUHU216HW,2013-02-03 07:27:00,
2013-02-02 23:32:00,37.1,36.0,29.84,NNW,338,0.0,0.7,96,0.00,,,0.00,WUHU216HW,2013-02-03 07:32:00,
2013-02-02 23:37:00,37.1,36.0,29.85,SSW,203,2.0,2.5,96,0.00,,,0.00,WUHU216HW,2013-02-03 07:37:00,
2013-02-02 23:42:00,37.1,36.0,29.85,ENE,68,0.0,2.5,96,0.00,,,0.00,WUHU216HW,2013-02-03 07:42:00,
2013-02-02 23:47:00,36.7,35.6,29.85,NNE,23,0.7,2.0,96,0.00,,,0.00,WUHU216HW,2013-02-03 07:47:00,
2013-02-02 23:52:00,36.7,35.6,29.85,NNE,23,0.4,1.8,96,0.00,,,0.00,WUHU216HW,2013-02-03 07:52:00,
2013-02-02 23:57:00,36.5,35.5,29.85,North,0,1.1,1.8,96,0.00,,,0.00,WUHU216HW,2013-02-03 07:57:00,